Tracy, MN

11:20 PM CST on December 17, 2017 (GMT -0600)
Tracy

Weather History for KTKC - December, 2013

Change the Weather History Date:

Sunday, December 22, 2013

  Actual Average (KMML) Record (KMML)
Temperature  
Mean Temperature 0 °F -  
Max Temperature 5 °F 24 °F 48 °F (1986)
Min Temperature -4 °F 8 °F -21 °F (1983)
Degree Days  
Heating Degree Days 64    
Moisture  
Dew Point -4 °F    
Average Humidity 79    
Maximum Humidity 84    
Minimum Humidity 72    
Precipitation  
Precipitation 0.00 in - - ()
Sea Level Pressure  
Sea Level Pressure 30.12 in    
Wind  
Wind Speed 15 mph (NW)    
Max Wind Speed 23 mph    
Max Gust Speed 25 mph    
Visibility 8 miles    
Events Snow    
Averages and records for this station are not official NWS values.
T = Trace of Precipitation, MM = Missing Value Source: NWS Daily Summary

Daily Weather History Graph

Daily Weather History Graph

Search for Another Location

Airport or City:

Trip Planner

Search our weather history database for the weather conditions in past years. The results will help you decide how hot, cold, wet, or windy it might be!

Date:

Astronomy

Dec. 22, 2013 Rise Set
Actual Time 7:55 AM CST 4:47 PM CST
Civil Twilight 7:22 AM CST 5:20 PM CST
Nautical Twilight 6:45 AM CST 5:57 PM CST
Astronomical Twilight 6:10 AM CST 6:32 PM CST
Moon 10:11 PM CST (12/22) 10:42 AM CST (12/22)
Length of Visible Light 9h 58m
Length of Day
8h 51m
Waning Gibbous, 76% of the Moon is Illuminated
Dec 22
Waning Gibbous
Dec 25
Last Quarter
Jan 1
New
Jan 7
First Quarter
Jan 15
Full

Hourly Weather History & Observations

Time (CST) Temp. Windchill Dew Point Humidity Pressure Visibility Wind Dir Wind Speed Gust Speed Precip Events Conditions
12:18 AM 5.0 °F -12.3 °F 1.0 °F 84% 29.97 in 7.0 mi NNW 13.8 mph - N/A Snow Light Snow
12:38 AM 4.8 °F -12.5 °F 0.9 °F 84% 29.98 in 7.0 mi NNW 13.8 mph - N/A Snow Light Snow
12:58 AM 4.8 °F -11.8 °F 0.9 °F 84% 29.98 in 7.0 mi NNW 12.7 mph - N/A Snow Light Snow
1:18 AM 4.6 °F -14.0 °F 0.5 °F 83% 29.98 in 5.0 mi NW 16.1 mph - N/A Snow Light Snow
1:37 AM 4.5 °F -14.3 °F 0.5 °F 84% 29.99 in 5.0 mi NNW 16.1 mph - N/A Snow Light Snow
1:58 AM 3.7 °F -14.6 °F -0.4 °F 83% 29.99 in 5.0 mi NNW 15.0 mph - N/A Snow Light Snow
2:18 AM 3.7 °F -13.9 °F -0.4 °F 83% 29.99 in 5.0 mi NW 13.8 mph 18.4 mph N/A Snow Light Snow
2:37 AM 3.7 °F -14.6 °F -0.4 °F 83% 30.00 in 7.0 mi NNW 15.0 mph - N/A Snow Light Snow
2:57 AM 3.7 °F -13.9 °F -0.6 °F 82% 30.01 in 7.0 mi NW 13.8 mph 19.6 mph N/A Snow Light Snow
3:17 AM 3.2 °F -13.9 °F -0.9 °F 83% 30.02 in 7.0 mi NW 12.7 mph - N/A Snow Light Snow
3:38 AM 3.2 °F -13.9 °F -1.3 °F 82% 30.02 in 10.0 mi NW 12.7 mph - N/A   Overcast
3:57 AM 2.7 °F -15.3 °F -1.7 °F 82% 30.02 in 10.0 mi NW 13.8 mph - N/A Snow Light Snow
4:18 AM 2.3 °F -15.0 °F -2.2 °F 81% 30.02 in 5.0 mi NW 12.7 mph - N/A Snow Light Snow
4:38 AM 2.3 °F -15.7 °F -2.2 °F 81% 30.02 in 5.0 mi NW 13.8 mph 19.6 mph N/A Snow Light Snow
4:57 AM 1.9 °F -14.7 °F -2.6 °F 81% 30.02 in 3.0 mi NW 11.5 mph - N/A Snow Light Snow
5:17 AM 1.8 °F -17.1 °F -2.7 °F 81% 30.03 in 4.0 mi NW 15.0 mph - N/A Snow Light Snow
5:38 AM 1.4 °F -16.1 °F -3.1 °F 81% 30.03 in 5.0 mi NW 12.7 mph - N/A Snow Light Snow
5:58 AM 1.4 °F -17.6 °F -3.1 °F 81% 30.03 in 5.0 mi NW 15.0 mph 19.6 mph N/A   Scattered Clouds
6:17 AM 1.0 °F -18.0 °F -3.6 °F 81% 30.02 in 4.0 mi NNW 15.0 mph - N/A   Haze
6:37 AM 0.9 °F -19.5 °F -4.0 °F 80% 30.02 in 7.0 mi NW 17.3 mph - N/A   Clear
6:58 AM 0.5 °F -19.4 °F -4.0 °F 81% 30.03 in 5.0 mi NW 16.1 mph - N/A   Clear
7:18 AM 0.3 °F -17.5 °F -4.2 °F 81% 30.03 in 10.0 mi NNW 12.7 mph - N/A   Clear
7:37 AM -0.0 °F -19.4 °F -4.4 °F 82% 30.04 in 7.0 mi NW 15.0 mph - N/A   Clear
7:57 AM 0.1 °F -18.5 °F -4.2 °F 82% 30.04 in 7.0 mi NW 13.8 mph - N/A   Clear
8:17 AM 0.3 °F -19.0 °F -4.0 °F 82% 30.05 in 7.0 mi NW 15.0 mph - N/A   Clear
8:37 AM 0.5 °F -17.3 °F -4.0 °F 81% 30.05 in 10.0 mi NW 12.7 mph - N/A   Clear
8:57 AM 0.9 °F -17.6 °F -3.8 °F 81% 30.06 in 7.0 mi NW 13.8 mph - N/A   Clear
9:18 AM 0.9 °F -18.9 °F -3.6 °F 81% 30.07 in 5.0 mi NNW 16.1 mph - N/A   Haze
9:37 AM 0.5 °F -17.3 °F -4.0 °F 81% 30.08 in 4.0 mi NW 12.7 mph - N/A   Clear
9:57 AM 1.2 °F -15.6 °F -4.0 °F 79% 30.09 in 5.0 mi NNW 11.5 mph - N/A   Haze
10:18 AM 1.4 °F -18.2 °F -4.0 °F 78% 30.10 in 4.0 mi NNW 16.1 mph - N/A   Haze
10:38 AM 1.9 °F -15.5 °F -4.0 °F 76% 30.11 in 5.0 mi NNW 12.7 mph 20.7 mph N/A   Haze
10:57 AM 2.3 °F -15.7 °F -3.5 °F 77% 30.11 in 4.0 mi NNW 13.8 mph 18.4 mph N/A   Haze
11:18 AM 2.7 °F -16.0 °F -3.3 °F 76% 30.11 in 5.0 mi NW 15.0 mph - N/A   Haze
11:30 AM 2.7 °F -16.6 °F -3.3 °F 76% 30.11 in 4.0 mi NNW 16.1 mph - N/A   Haze
3:07 PM 3.9 °F -16.6 °F -2.2 °F 76% 30.14 in 10.0 mi NW 19.6 mph - N/A   Clear
3:18 PM 3.7 °F -15.2 °F -2.4 °F 76% 30.14 in 10.0 mi NW 16.1 mph - N/A   Clear
3:37 PM 3.2 °F -13.9 °F -2.6 °F 77% 30.14 in 10.0 mi NW 12.7 mph - N/A   Clear
3:57 PM 2.8 °F -15.7 °F -3.1 °F 76% 30.16 in 10.0 mi NW 15.0 mph 18.4 mph N/A   Clear
4:17 PM 2.7 °F -15.3 °F -3.1 °F 77% 30.18 in 10.0 mi NW 13.8 mph - N/A   Clear
4:38 PM 2.1 °F -16.6 °F -3.6 °F 77% 30.18 in 10.0 mi NW 15.0 mph - N/A   Scattered Clouds
4:58 PM 2.3 °F -15.7 °F -3.6 °F 76% 30.19 in 10.0 mi NW 13.8 mph - N/A   Scattered Clouds
5:18 PM 3.0 °F -14.8 °F -3.1 °F 76% 30.19 in 10.0 mi NW 13.8 mph - N/A   Overcast
5:37 PM 2.3 °F -15.7 °F -3.6 °F 76% 30.19 in 10.0 mi NW 13.8 mph - N/A   Scattered Clouds
5:58 PM 1.9 °F -18.1 °F -4.0 °F 76% 30.20 in 10.0 mi NW 17.3 mph 21.9 mph N/A   Scattered Clouds
6:17 PM 1.8 °F -17.1 °F -4.2 °F 76% 30.21 in 10.0 mi NNW 15.0 mph 18.4 mph N/A   Mostly Cloudy
6:38 PM 0.9 °F -17.6 °F -4.9 °F 77% 30.22 in 10.0 mi NNW 13.8 mph - N/A   Scattered Clouds
6:58 PM 0.5 °F -16.5 °F -5.1 °F 77% 30.22 in 10.0 mi NW 11.5 mph 18.4 mph N/A   Clear
7:17 PM 0.5 °F -18.0 °F -4.7 °F 79% 30.23 in 10.0 mi NW 13.8 mph 20.7 mph N/A   Scattered Clouds
7:38 PM 0.5 °F -20.0 °F -4.7 °F 79% 30.23 in 10.0 mi NW 17.3 mph - N/A   Scattered Clouds
7:58 PM 0.3 °F -19.0 °F -5.1 °F 78% 30.25 in 10.0 mi NW 15.0 mph - N/A   Clear
8:17 PM -0.4 °F -21.2 °F -5.8 °F 78% 30.25 in 10.0 mi NW 17.3 mph - N/A   Clear
8:37 PM -1.3 °F -22.3 °F -6.7 °F 78% 30.26 in 10.0 mi NW 17.3 mph 21.9 mph N/A   Clear
8:58 PM -1.7 °F -24.5 °F -7.1 °F 78% 30.26 in 10.0 mi NW 20.7 mph 25.3 mph N/A   Clear
9:18 PM -1.8 °F -23.6 °F -7.6 °F 76% 30.27 in 10.0 mi NW 18.4 mph 24.2 mph N/A   Clear
9:37 PM -2.2 °F -23.5 °F -8.0 °F 76% 30.27 in 10.0 mi NW 17.3 mph - N/A   Clear
9:57 PM -2.6 °F -24.6 °F -8.5 °F 76% 30.28 in 10.0 mi NW 18.4 mph - N/A   Clear
10:17 PM -3.1 °F -24.7 °F -8.5 °F 78% 30.28 in 10.0 mi NW 17.3 mph 24.2 mph N/A   Clear
10:37 PM -3.5 °F -23.8 °F -9.2 °F 76% 30.30 in 10.0 mi NW 15.0 mph - N/A   Clear
10:57 PM -4.0 °F -27.0 °F -10.1 °F 75% 30.30 in 10.0 mi NW 19.6 mph 25.3 mph N/A   Clear
11:18 PM -4.2 °F -26.1 °F -10.5 °F 74% 30.31 in 10.0 mi NW 17.3 mph 21.9 mph N/A   Clear
11:38 PM -4.4 °F -29.1 °F -11.2 °F 72% 30.32 in 10.0 mi NW 23.0 mph - N/A   Clear
11:57 PM -4.9 °F -28.8 °F -11.6 °F 73% 30.32 in 10.0 mi NW 20.7 mph - N/A   Clear